Location: Unspecified
(17.6330°N, 0.0000°E)
Time: 03:00:41
(UTC+00:00)

Courier 1B Rocket - Pass Details

Date: 01 July 2019
Orbit: 920 x 1202 km, 28.2° (Epoch: 12 October)

Event Time Altitude Azimuth Distance (km) Brightness Sun altitude
Exits shadow 02:15:16 35° 340° (NNW) 1,757 6.4 -38.1°
Maximum altitude 02:16:15 36° 356° (N) 1,710 6.4 -38.0°
Drops below altitude 10° 02:22:50 10° 62° (ENE) 2,921 8.1 -36.9°
Sets 02:25:45 0° 70° (ENE) 3,831 8.9 -36.5°
